Weather History for Salisbury, MD

Change the Weather History Date:

Wednesday, May 28, 2014

  Actual Average Record
Temperature  
Mean Temperature 73 °F 66 °F  
Max Temperature 86 °F 77 °F 96 °F (1941)
Min Temperature 59 °F 55 °F 39 °F (1994)
Degree Days  
Heating Degree Days 0 3  
Month to date heating degree days 41 136  
Since 1 July heating degree days 4162 4416  
Cooling Degree Days 8 4  
Month to date cooling degree days 120 55  
Year to date cooling degree days 134 72  
Growing Degree Days 21 (Base 50)    
Moisture  
Dew Point 64 °F    
Average Humidity 74    
Maximum Humidity 90    
Minimum Humidity 58    
Precipitation  
Precipitation T in 0.12 in 1.40 in (1966)
Month to date precipitation 1.95 3.23  
Year to date precipitation 11.56 18.16  
Snow  
Snow 0.00 in 0.00 in 0.00 in (2002)
Month to date snowfall 0.0 0.0  
Since 1 July snowfall 22.5 9.3  
Snow Depth 0.00 in    
Sea Level Pressure  
Sea Level Pressure 29.94 in    
Wind  
Wind Speed 10 mph (NW)    
Max Wind Speed 20 mph    
Max Gust Speed 26 mph    
Visibility 10 miles    
Events Rain    
T = Trace of Precipitation, MM = Missing Value Source: NWS Daily Summary

Daily Weather History Graph

Daily Weather History Graph

Search for Another Location

Airport:

Trip Planner

Search our weather history database for the weather conditions in past years. The results will help you decide how hot, cold, wet, or windy it might be!

Date:

Astronomy

May. 28, 2014 Rise Set
Actual Time 5:41 AM EDT 8:17 PM EDT
Civil Twilight 5:11 AM EDT 8:47 PM EDT
Nautical Twilight 4:32 AM EDT 9:26 PM EDT
Astronomical Twilight 3:50 AM EDT 10:09 PM EDT
Moon 5:45 AM EDT (5/28) 8:14 PM EDT (5/28)
Length of Visible Light 15h 36m
Length of Day
14h 35m
Waning Crescent, 0% of the Moon is Illuminated
May 28
Waning Crescent
May 28
New
Jun 5
First Quarter
Jun 13
Full
Jun 19
Last Quarter

Hourly Weather History & Observations

Time (EDT) Temp. Heat Index Dew Point Humidity Pressure Visibility Wind Dir Wind Speed Gust Speed Precip Events Conditions
12:54 AM 70.0 °F - 66.0 °F 87% 29.88 in 10.0 mi SW 3.5 mph - 0.00 in Rain Light Rain
1:54 AM 70.0 °F - 66.0 °F 87% 29.87 in 10.0 mi Calm Calm - 0.00 in   Scattered Clouds
2:54 AM 70.0 °F - 66.0 °F 87% 29.86 in 10.0 mi West 6.9 mph - N/A   Scattered Clouds
3:54 AM 71.1 °F - 66.9 °F 87% 29.86 in 9.0 mi West 5.8 mph - N/A   Clear
4:54 AM 71.1 °F - 66.9 °F 87% 29.86 in 10.0 mi West 6.9 mph - N/A   Clear
5:54 AM 70.0 °F - 66.0 °F 87% 29.87 in 8.0 mi WSW 5.8 mph - N/A   Clear
6:54 AM 72.0 °F - 66.9 °F 84% 29.88 in 9.0 mi West 8.1 mph - N/A   Clear
7:54 AM 73.9 °F - 66.9 °F 79% 29.89 in 10.0 mi West 6.9 mph - N/A   Mostly Cloudy
9:54 AM 79.0 °F - 66.9 °F 66% 29.91 in 10.0 mi WNW 8.1 mph - N/A   Clear
10:54 AM 82.0 °F 84.1 °F 66.0 °F 58% 29.92 in 10.0 mi NW 13.8 mph - N/A   Clear
11:54 AM 82.0 °F 84.1 °F 66.0 °F 58% 29.92 in 10.0 mi NW 8.1 mph - N/A   Overcast
12:54 PM 82.9 °F 85.4 °F 66.9 °F 58% 29.91 in 10.0 mi NNW 10.4 mph - N/A   Partly Cloudy
2:54 PM 82.0 °F 84.9 °F 68.0 °F 62% 29.91 in 10.0 mi WSW 10.4 mph - N/A   Mostly Cloudy
3:54 PM 80.1 °F 83.2 °F 70.0 °F 71% 29.92 in 8.0 mi ENE 12.7 mph - N/A   Overcast
4:54 PM 75.9 °F - 66.0 °F 71% 29.94 in 8.0 mi East 12.7 mph - N/A   Scattered Clouds
5:39 PM 69.8 °F - 62.6 °F 78% 29.95 in 7.0 mi East 12.7 mph - N/A   Mostly Cloudy
7:54 PM 62.1 °F - 55.9 °F 80% 30.02 in 10.0 mi ENE 16.1 mph 21.9 mph N/A   Overcast
8:54 PM 61.0 °F - 55.0 °F 81% 30.04 in 10.0 mi ENE 13.8 mph - N/A   Overcast
9:54 PM 61.0 °F - 54.0 °F 78% 30.07 in 10.0 mi ENE 18.4 mph 24.2 mph N/A   Overcast
10:54 PM 60.1 °F - 54.0 °F 80% 30.08 in 10.0 mi East 18.4 mph 26.5 mph N/A   Overcast
11:54 PM 59.0 °F - 53.1 °F 81% 30.09 in 10.0 mi ENE 13.8 mph 24.2 mph N/A   Overcast